Year,Month,Day,Hour,Minute,Value (Times are PST for temperature in C)
2006,12,15,00,00,6.20
2006,12,15,00,01,6.20
2006,12,15,00,02,6.20
2006,12,15,00,03,6.20
2006,12,15,00,04,6.20
2006,12,15,00,05,6.20
2006,12,15,00,06,6.20
2006,12,15,00,07,6.20
2006,12,15,00,08,6.20
2006,12,15,00,09,6.20
2006,12,15,00,10,6.20
2006,12,15,00,11,6.20
2006,12,15,00,12,6.20
2006,12,15,00,13,6.20
2006,12,15,00,14,6.20
2006,12,15,00,15,6.20
2006,12,15,00,16,6.20
2006,12,15,00,17,6.20
2006,12,15,00,18,6.20
2006,12,15,00,19,6.20
2006,12,15,00,20,6.20
2006,12,15,00,21,6.20
2006,12,15,00,22,6.20
2006,12,15,00,23,6.30
2006,12,15,00,24,6.30
2006,12,15,00,25,6.40
2006,12,15,00,26,6.40
2006,12,15,00,27,6.40
2006,12,15,00,28,6.50
2006,12,15,00,29,6.60
2006,12,15,00,30,6.60
2006,12,15,00,31,6.60
2006,12,15,00,32,6.60
2006,12,15,00,33,6.70
2006,12,15,00,34,6.70
2006,12,15,00,35,6.70
2006,12,15,00,36,6.70
2006,12,15,00,37,6.70
2006,12,15,00,38,6.70
2006,12,15,00,39,6.60
2006,12,15,00,40,6.60
2006,12,15,00,41,6.50
2006,12,15,00,42,6.40
2006,12,15,00,43,6.40
2006,12,15,00,44,6.20
2006,12,15,00,45,6.20
2006,12,15,00,46,6.10
2006,12,15,00,47,6.00
2006,12,15,00,48,6.00
2006,12,15,00,49,5.80
2006,12,15,00,50,5.70
2006,12,15,00,51,5.70
2006,12,15,00,52,5.60
2006,12,15,00,53,5.50
2006,12,15,00,54,5.40
2006,12,15,00,55,5.30
2006,12,15,00,56,5.30
2006,12,15,00,57,5.30
2006,12,15,00,58,5.20
2006,12,15,00,59,5.20
2006,12,15,01,00,5.20
2006,12,15,01,01,5.10
2006,12,15,01,02,5.10
2006,12,15,01,03,5.10
2006,12,15,01,04,5.10
2006,12,15,01,05,5.10
2006,12,15,01,06,5.10
2006,12,15,01,07,5.10
2006,12,15,01,08,5.10
2006,12,15,01,09,5.00
2006,12,15,01,10,4.90
2006,12,15,01,11,4.90
2006,12,15,01,12,4.90
2006,12,15,01,13,4.90
2006,12,15,01,14,4.90
2006,12,15,01,15,4.90
2006,12,15,01,16,4.90
2006,12,15,01,17,4.90
2006,12,15,01,18,4.90
2006,12,15,01,19,4.90
2006,12,15,01,20,4.90
2006,12,15,01,21,4.90
2006,12,15,01,22,4.90
2006,12,15,01,23,4.90
2006,12,15,01,24,4.90
2006,12,15,01,25,4.90
2006,12,15,01,26,4.90
2006,12,15,01,27,4.90
2006,12,15,01,28,4.90
2006,12,15,01,29,5.00
2006,12,15,01,30,5.00
2006,12,15,01,31,5.00
2006,12,15,01,32,4.90
2006,12,15,01,33,4.90
2006,12,15,01,34,4.90
2006,12,15,01,35,4.90
2006,12,15,01,36,4.90
2006,12,15,01,37,4.90
2006,12,15,01,38,4.90
2006,12,15,01,39,4.90
2006,12,15,01,40,4.90
2006,12,15,01,41,4.90
2006,12,15,01,42,4.90
2006,12,15,01,43,4.90
2006,12,15,01,44,4.90
2006,12,15,01,45,5.00
2006,12,15,01,46,5.10
2006,12,15,01,47,5.10
2006,12,15,01,48,5.10
2006,12,15,01,49,5.10
2006,12,15,01,50,5.10
2006,12,15,01,51,5.10
2006,12,15,01,52,5.10
2006,12,15,01,53,5.00
2006,12,15,01,54,4.90
2006,12,15,01,55,5.00
2006,12,15,01,56,5.10
2006,12,15,01,57,5.10
2006,12,15,01,58,5.10
2006,12,15,01,59,5.10
2006,12,15,02,00,5.10
2006,12,15,02,01,5.10
2006,12,15,02,02,5.10
2006,12,15,02,03,5.10
2006,12,15,02,04,5.10
2006,12,15,02,05,5.10
2006,12,15,02,06,5.10
2006,12,15,02,07,5.10
2006,12,15,02,08,5.10
2006,12,15,02,09,5.00
2006,12,15,02,10,4.90
2006,12,15,02,11,4.90
2006,12,15,02,12,4.90
2006,12,15,02,13,4.90
2006,12,15,02,14,4.90
2006,12,15,02,15,4.90
2006,12,15,02,16,4.90
2006,12,15,02,17,4.90
2006,12,15,02,18,4.90
2006,12,15,02,19,4.90
2006,12,15,02,20,4.90
2006,12,15,02,21,4.90
2006,12,15,02,22,4.90
2006,12,15,02,23,4.90
2006,12,15,02,24,4.90
2006,12,15,02,25,4.90
2006,12,15,02,26,4.90
2006,12,15,02,27,4.90
2006,12,15,02,28,4.90
2006,12,15,02,29,4.90
2006,12,15,02,30,5.00
2006,12,15,02,31,4.90
2006,12,15,02,32,4.90
2006,12,15,02,33,4.90
2006,12,15,02,34,4.90
2006,12,15,02,35,4.90
2006,12,15,02,36,4.90
2006,12,15,02,37,4.90
2006,12,15,02,38,4.90
2006,12,15,02,39,4.90
2006,12,15,02,40,5.00
2006,12,15,02,41,5.10
2006,12,15,02,42,5.10
2006,12,15,02,43,5.20
2006,12,15,02,44,5.20
2006,12,15,02,45,5.30
2006,12,15,02,46,5.30
2006,12,15,02,47,5.30
2006,12,15,02,48,5.30
2006,12,15,02,49,5.30
2006,12,15,02,50,5.30
2006,12,15,02,51,5.30
2006,12,15,02,52,5.40
2006,12,15,02,53,5.40
2006,12,15,02,54,5.40
2006,12,15,02,55,5.40
2006,12,15,02,56,5.40
2006,12,15,02,57,5.40
2006,12,15,02,58,5.40
2006,12,15,02,59,5.40
2006,12,15,03,00,5.50
2006,12,15,03,01,5.50
2006,12,15,03,02,5.50
2006,12,15,03,03,5.50
2006,12,15,03,04,5.50
2006,12,15,03,05,5.50
2006,12,15,09,19,4.60
2006,12,15,09,20,4.60
2006,12,15,09,21,4.60
2006,12,15,09,22,4.60
2006,12,15,09,23,4.60
2006,12,15,09,24,4.60
2006,12,15,09,25,4.60
2006,12,15,09,26,4.60
2006,12,15,09,27,4.60
2006,12,15,09,28,4.60
2006,12,15,09,29,4.60
2006,12,15,09,30,4.60
2006,12,15,09,31,4.60
2006,12,15,09,32,4.60
2006,12,15,09,33,4.60
2006,12,15,09,34,4.60
2006,12,15,09,35,4.60
2006,12,15,09,36,4.60
2006,12,15,09,37,4.60
2006,12,15,09,38,4.60
2006,12,15,09,39,4.60
2006,12,15,09,40,4.70
2006,12,15,09,41,4.70
2006,12,15,09,42,4.80
2006,12,15,09,43,4.80
2006,12,15,09,44,4.90
2006,12,15,09,45,4.90
2006,12,15,09,46,4.90
2006,12,15,09,47,4.90
2006,12,15,09,48,4.90
2006,12,15,09,49,5.00
2006,12,15,09,50,5.10
2006,12,15,09,51,5.10
2006,12,15,09,52,5.10
2006,12,15,09,53,5.10
2006,12,15,09,54,5.10
2006,12,15,09,55,5.10
2006,12,15,09,56,5.10
2006,12,15,09,57,5.10
2006,12,15,09,58,5.20
2006,12,15,09,59,5.20
2006,12,15,10,00,5.20
2006,12,15,10,01,5.30
2006,12,15,10,02,5.30
2006,12,15,10,03,5.30
2006,12,15,10,04,5.30
2006,12,15,10,05,5.30
2006,12,15,10,06,5.30
2006,12,15,10,07,5.30
2006,12,15,10,08,5.40
2006,12,15,10,09,5.40
2006,12,15,10,10,5.40
2006,12,15,10,11,5.50
2006,12,15,10,12,5.50
2006,12,15,10,13,5.50
2006,12,15,10,14,5.50
2006,12,15,10,15,5.60
2006,12,15,10,16,5.60
2006,12,15,10,17,5.60
2006,12,15,10,18,5.60
2006,12,15,10,19,5.60
2006,12,15,10,20,5.60
2006,12,15,10,21,5.60
2006,12,15,10,22,5.60
2006,12,15,10,23,5.50
2006,12,15,10,24,5.50
2006,12,15,10,25,5.50
2006,12,15,10,26,5.50
2006,12,15,10,27,5.50
2006,12,15,10,28,5.50
2006,12,15,10,29,5.50
2006,12,15,10,30,5.50
2006,12,15,10,31,5.50
2006,12,15,10,32,5.50
2006,12,15,10,33,5.50
2006,12,15,10,34,5.50
2006,12,15,10,35,5.50
2006,12,15,10,36,5.50
2006,12,15,10,37,5.50
2006,12,15,10,38,5.50
2006,12,15,10,39,5.50
2006,12,15,10,40,5.40
2006,12,15,10,41,5.40
2006,12,15,10,42,5.40
2006,12,15,10,43,5.40
2006,12,15,10,44,5.30
2006,12,15,10,45,5.30
2006,12,15,10,46,5.30
2006,12,15,10,47,5.30
2006,12,15,10,48,5.30
2006,12,15,10,49,5.30
2006,12,15,10,50,5.30
2006,12,15,10,51,5.30
2006,12,15,10,52,5.30
2006,12,15,10,53,5.30
2006,12,15,10,54,5.30
2006,12,15,10,55,5.30
2006,12,15,10,56,5.30
2006,12,15,10,57,5.30
2006,12,15,10,58,5.30
2006,12,15,10,59,5.40
2006,12,15,11,00,5.40
2006,12,15,11,01,5.40
2006,12,15,11,02,5.50
2006,12,15,11,03,5.50
2006,12,15,11,04,5.50
2006,12,15,11,05,5.50
2006,12,15,11,06,5.50
2006,12,15,11,07,5.50
2006,12,15,11,08,5.50
2006,12,15,11,09,5.60
2006,12,15,11,10,5.60
2006,12,15,11,11,5.70
2006,12,15,11,12,5.70
2006,12,15,11,13,5.70
2006,12,15,11,14,5.70
2006,12,15,11,15,5.80
2006,12,15,11,16,5.90
2006,12,15,11,17,5.90
2006,12,15,11,18,6.00
2006,12,15,11,19,6.00
2006,12,15,11,20,6.00
2006,12,15,11,21,6.10
2006,12,15,11,22,6.10
2006,12,15,11,23,6.20
2006,12,15,11,24,6.20
2006,12,15,11,25,6.20
2006,12,15,11,26,6.20
2006,12,15,11,27,6.20
2006,12,15,11,28,6.20
2006,12,15,11,29,6.20
2006,12,15,11,30,6.20
2006,12,15,11,31,6.20
2006,12,15,11,32,6.10
2006,12,15,11,33,6.10
2006,12,15,11,34,6.10
2006,12,15,11,35,6.10
2006,12,15,11,36,6.10
2006,12,15,11,37,6.00
2006,12,15,11,38,6.00
2006,12,15,11,39,6.00
2006,12,15,11,40,6.10
2006,12,15,11,41,6.10
2006,12,15,11,42,6.10
2006,12,15,11,43,6.10
2006,12,15,11,44,6.20
2006,12,15,11,45,6.20
2006,12,15,11,46,6.20
2006,12,15,11,47,6.20
2006,12,15,11,48,6.20
2006,12,15,11,49,6.20
2006,12,15,11,50,6.20
2006,12,15,11,51,6.20
2006,12,15,11,52,6.20
2006,12,15,11,53,6.20
2006,12,15,11,54,6.20
2006,12,15,11,55,6.20
2006,12,15,11,56,6.20
2006,12,15,11,57,6.20
2006,12,15,11,58,6.20
2006,12,15,11,59,6.20
2006,12,15,12,00,6.20
2006,12,15,12,01,6.20
2006,12,15,12,02,6.20
2006,12,15,12,03,6.20
2006,12,15,12,04,6.20
2006,12,15,12,05,6.20
2006,12,15,12,06,6.20
2006,12,15,12,07,6.20
2006,12,15,12,08,6.20
2006,12,15,12,09,6.20
2006,12,15,12,10,6.20
2006,12,15,12,11,6.30
2006,12,15,12,12,6.30
2006,12,15,12,13,6.30
2006,12,15,12,14,6.30
2006,12,15,12,15,6.30
2006,12,15,12,16,6.30
2006,12,15,12,17,6.40
2006,12,15,12,18,6.40
2006,12,15,12,19,6.40
2006,12,15,12,20,6.40
2006,12,15,12,21,6.40
2006,12,15,12,22,6.40
2006,12,15,12,23,6.50
2006,12,15,12,24,6.60
2006,12,15,12,25,6.60
2006,12,15,12,26,6.60
2006,12,15,12,27,6.60
2006,12,15,12,28,6.60
2006,12,15,12,29,6.60
2006,12,15,12,30,6.60
2006,12,15,12,31,6.60
2006,12,15,12,32,6.60
2006,12,15,12,33,6.60
2006,12,15,12,34,6.60
2006,12,15,12,35,6.60
2006,12,15,12,36,6.60
2006,12,15,12,37,6.60
2006,12,15,12,38,6.50
2006,12,15,12,39,6.50
2006,12,15,12,40,6.60
2006,12,15,12,41,6.60
2006,12,15,12,42,6.60
2006,12,15,12,43,6.60
2006,12,15,12,44,6.60
2006,12,15,12,45,6.60
2006,12,15,12,46,6.60
2006,12,15,12,47,6.60
2006,12,15,12,48,6.60
2006,12,15,12,49,6.60
2006,12,15,12,50,6.60
2006,12,15,12,51,6.60
2006,12,15,12,52,6.60
2006,12,15,12,53,6.60
2006,12,15,12,54,6.60
2006,12,15,12,55,6.60
2006,12,15,12,56,6.60
2006,12,15,12,57,6.60
2006,12,15,12,58,6.60
2006,12,15,12,59,6.60
2006,12,15,13,00,6.60
2006,12,15,13,01,6.60
2006,12,15,13,02,6.60
2006,12,15,13,03,6.60
2006,12,15,13,04,6.60
2006,12,15,13,05,6.70
2006,12,15,13,06,6.70
2006,12,15,13,07,6.70
2006,12,15,13,08,6.70
2006,12,15,13,09,6.70
2006,12,15,13,10,6.70
2006,12,15,13,11,6.70
2006,12,15,13,12,6.70
2006,12,15,13,13,6.70
2006,12,15,13,14,6.70
2006,12,15,13,15,6.70
2006,12,15,13,16,6.70
2006,12,15,13,17,6.70
2006,12,15,13,18,6.70
2006,12,15,13,19,6.70
2006,12,15,13,20,6.70
2006,12,15,13,21,6.70
2006,12,15,13,22,6.60
2006,12,15,13,23,6.60
2006,12,15,13,24,6.60
2006,12,15,13,25,6.60
2006,12,15,13,26,6.60
2006,12,15,13,27,6.60
2006,12,15,13,28,6.60
2006,12,15,13,29,6.60
2006,12,15,13,30,6.60
2006,12,15,13,31,6.60
2006,12,15,13,32,6.60
2006,12,15,13,33,6.40
2006,12,15,13,34,6.40
2006,12,15,13,35,6.40
2006,12,15,13,36,6.40
2006,12,15,13,37,6.40
2006,12,15,13,38,6.40
2006,12,15,13,39,6.40
2006,12,15,13,40,6.30
2006,12,15,13,41,6.30
2006,12,15,13,42,6.30
2006,12,15,13,43,6.30
2006,12,15,13,44,6.20
2006,12,15,13,45,6.20
2006,12,15,13,46,6.20
2006,12,15,13,47,6.20
2006,12,15,13,48,6.20
2006,12,15,13,49,6.10
2006,12,15,13,50,6.10
2006,12,15,13,51,6.00
2006,12,15,13,52,6.00
2006,12,15,13,53,5.90
2006,12,15,13,54,5.90
2006,12,15,13,55,5.80
2006,12,15,13,56,5.80
2006,12,15,13,57,5.70
2006,12,15,13,58,5.70
2006,12,15,13,59,5.70
2006,12,15,14,00,5.60
2006,12,15,14,01,5.60
2006,12,15,14,02,5.50
2006,12,15,14,03,5.50
2006,12,15,14,04,5.40
2006,12,15,14,05,5.40
2006,12,15,14,06,5.30
2006,12,15,14,07,5.30
2006,12,15,14,08,5.30
2006,12,15,14,09,5.20
2006,12,15,14,10,5.10
2006,12,15,14,11,5.10
2006,12,15,14,12,5.10
2006,12,15,14,13,5.10
2006,12,15,14,14,5.10
2006,12,15,14,15,5.10
2006,12,15,14,16,5.10
2006,12,15,14,17,5.10
2006,12,15,14,18,5.10
2006,12,15,14,19,5.00
2006,12,15,14,20,4.90
2006,12,15,14,21,4.90
2006,12,15,14,22,4.90
2006,12,15,14,23,4.90
2006,12,15,14,24,4.90
2006,12,15,14,25,4.90
2006,12,15,14,26,4.90
2006,12,15,14,27,4.90
2006,12,15,14,28,4.90
2006,12,15,14,29,4.90
2006,12,15,14,30,4.90
2006,12,15,14,31,4.90
2006,12,15,14,32,4.90
2006,12,15,14,33,4.90
2006,12,15,14,34,4.90
2006,12,15,14,35,4.90
2006,12,15,14,36,5.10
2006,12,15,14,37,5.10
2006,12,15,14,38,5.10
2006,12,15,14,39,5.10
2006,12,15,14,40,5.10
2006,12,15,14,41,5.10
2006,12,15,14,42,5.10
2006,12,15,14,43,5.10
2006,12,15,14,44,5.20
2006,12,15,14,45,5.30
2006,12,15,14,46,5.30
2006,12,15,14,47,5.30
2006,12,15,14,48,5.30
2006,12,15,14,49,5.30
2006,12,15,14,50,5.30
2006,12,15,14,51,5.30
2006,12,15,14,52,5.30
2006,12,15,14,53,5.30
2006,12,15,14,54,5.30
2006,12,15,14,55,5.30
2006,12,15,14,56,5.30
2006,12,15,14,57,5.30
2006,12,15,14,58,5.20
2006,12,15,14,59,5.20
2006,12,15,15,00,5.20
2006,12,15,15,01,5.10
2006,12,15,15,02,5.10
2006,12,15,15,03,5.10
2006,12,15,15,04,5.10
2006,12,15,15,05,5.10
2006,12,15,15,06,5.10
2006,12,15,15,07,5.10
2006,12,15,15,08,5.10
2006,12,15,15,09,5.10
2006,12,15,15,10,5.10
2006,12,15,15,11,5.00
2006,12,15,15,12,4.90
2006,12,15,15,13,4.90
2006,12,15,15,14,4.90
2006,12,15,15,15,4.80
2006,12,15,15,16,4.80
2006,12,15,15,17,4.80
2006,12,15,15,18,4.80
2006,12,15,15,19,4.70
2006,12,15,15,20,4.60
2006,12,15,15,21,4.60
2006,12,15,15,22,4.60
2006,12,15,15,23,4.50
2006,12,15,15,24,4.50
2006,12,15,15,25,4.50
2006,12,15,15,26,4.40
2006,12,15,15,27,4.40
2006,12,15,15,28,4.40
2006,12,15,15,29,4.40
2006,12,15,15,30,4.40
2006,12,15,15,31,4.40
2006,12,15,15,32,4.40
2006,12,15,15,33,4.40
2006,12,15,15,34,4.40
2006,12,15,15,35,4.40
2006,12,15,15,36,4.40
2006,12,15,15,37,4.40
2006,12,15,15,38,4.40
2006,12,15,15,39,4.40
2006,12,15,15,40,4.40
2006,12,15,15,41,4.40
2006,12,15,15,42,4.40
2006,12,15,15,43,4.40
2006,12,15,15,44,4.40
2006,12,15,15,45,4.40
2006,12,15,15,46,4.40
2006,12,15,15,47,4.30
2006,12,15,15,48,4.30
2006,12,15,15,49,4.30
2006,12,15,15,50,4.30
2006,12,15,15,51,4.30
2006,12,15,15,52,4.20
2006,12,15,15,53,4.20
2006,12,15,15,54,4.20
2006,12,15,15,55,4.20
2006,12,15,15,56,4.20
2006,12,15,15,57,4.20
2006,12,15,15,58,4.20
2006,12,15,15,59,4.20
2006,12,15,16,00,4.10
2006,12,15,16,01,4.10
2006,12,15,16,02,4.10
2006,12,15,16,03,4.10
2006,12,15,16,04,4.10
2006,12,15,16,05,4.00
2006,12,15,16,06,4.00
2006,12,15,16,07,4.00
2006,12,15,16,08,4.00
2006,12,15,16,09,4.00
2006,12,15,16,10,3.90
2006,12,15,16,11,3.90
2006,12,15,16,12,3.90
2006,12,15,16,13,3.80
2006,12,15,16,14,3.80
2006,12,15,16,15,3.80
2006,12,15,16,16,3.80
2006,12,15,16,17,3.80
2006,12,15,16,18,3.80
2006,12,15,16,19,3.80
2006,12,15,16,20,3.80
2006,12,15,16,21,3.80
2006,12,15,16,22,3.80
2006,12,15,16,23,3.80
2006,12,15,16,24,3.80
2006,12,15,16,25,3.80
2006,12,15,16,26,3.80
2006,12,15,16,27,3.80
2006,12,15,16,28,3.80
2006,12,15,16,29,3.80
2006,12,15,16,30,3.80
2006,12,15,16,31,3.80
2006,12,15,16,32,3.80
2006,12,15,16,33,3.80
2006,12,15,16,34,3.80
2006,12,15,16,35,3.80
2006,12,15,16,36,3.80
2006,12,15,16,37,3.80
2006,12,15,16,38,3.80
2006,12,15,16,39,3.70
2006,12,15,16,40,3.70
2006,12,15,16,41,3.70
2006,12,15,16,42,3.70
2006,12,15,16,43,3.60
2006,12,15,16,44,3.60
2006,12,15,16,45,3.60
2006,12,15,16,46,3.60
2006,12,15,16,47,3.50
2006,12,15,16,48,3.50
2006,12,15,16,49,3.50
2006,12,15,16,50,3.50
2006,12,15,16,51,3.40
2006,12,15,16,52,3.40
2006,12,15,16,53,3.40
2006,12,15,16,54,3.40
2006,12,15,16,55,3.30
2006,12,15,16,56,3.30
2006,12,15,16,57,3.30
2006,12,15,16,58,3.30
2006,12,15,16,59,3.30
2006,12,15,17,00,3.30
2006,12,15,17,01,3.30
2006,12,15,17,02,3.20
2006,12,15,17,03,3.20
2006,12,15,17,04,3.20
2006,12,15,17,05,3.10
2006,12,15,17,06,3.10
2006,12,15,17,07,3.10
2006,12,15,17,08,3.10
2006,12,15,17,09,3.10
2006,12,15,17,10,3.00
2006,12,15,17,11,2.90
2006,12,15,17,12,2.90
2006,12,15,17,13,2.90
2006,12,15,17,14,2.90
2006,12,15,17,15,2.90
2006,12,15,17,16,2.80
2006,12,15,17,17,2.80
2006,12,15,17,18,2.80
2006,12,15,17,19,2.70
2006,12,15,17,20,2.70
2006,12,15,17,21,2.70
2006,12,15,17,22,2.60
2006,12,15,17,23,2.60
2006,12,15,17,24,2.60
2006,12,15,17,25,2.50
2006,12,15,17,26,2.50
2006,12,15,17,27,2.50
2006,12,15,17,28,2.50
2006,12,15,17,29,2.50
2006,12,15,17,30,2.40
2006,12,15,17,31,2.40
2006,12,15,17,32,2.40
2006,12,15,17,33,2.40
2006,12,15,17,34,2.30
2006,12,15,17,35,2.30
2006,12,15,17,36,2.30
2006,12,15,17,37,2.20
2006,12,15,17,38,2.20
2006,12,15,17,39,2.20
2006,12,15,17,40,2.10
2006,12,15,17,41,2.10
2006,12,15,17,42,2.10
2006,12,15,17,43,2.00
2006,12,15,17,44,2.00
2006,12,15,17,45,2.00
2006,12,15,17,46,1.90
2006,12,15,17,47,1.90
2006,12,15,17,48,1.90
2006,12,15,17,49,1.80
2006,12,15,17,50,1.80
2006,12,15,17,51,1.80
2006,12,15,17,52,1.70
2006,12,15,17,53,1.70
2006,12,15,17,54,1.70
2006,12,15,17,55,1.70
2006,12,15,17,56,1.60
2006,12,15,17,57,1.50
2006,12,15,17,58,1.50
2006,12,15,17,59,1.40
2006,12,15,18,00,1.40
2006,12,15,18,01,1.30
2006,12,15,18,02,1.30
2006,12,15,18,03,1.30
2006,12,15,18,04,1.30
2006,12,15,18,05,1.20
2006,12,15,18,06,1.20
2006,12,15,18,07,1.20
2006,12,15,18,08,1.10
2006,12,15,18,09,1.10
2006,12,15,18,10,1.00
2006,12,15,18,11,0.90
2006,12,15,18,12,0.80
2006,12,15,18,13,0.80
2006,12,15,18,14,0.80
2006,12,15,18,15,0.80
2006,12,15,18,16,0.80
2006,12,15,18,17,0.80
2006,12,15,18,18,0.80
2006,12,15,18,19,0.70
2006,12,15,18,20,0.70
2006,12,15,18,21,0.70
2006,12,15,18,22,0.70
2006,12,15,18,23,0.70
2006,12,15,18,24,0.70
2006,12,15,18,25,0.60
2006,12,15,18,26,0.60
2006,12,15,18,27,0.60
2006,12,15,18,28,0.60
2006,12,15,18,29,0.60
2006,12,15,18,30,0.60
2006,12,15,18,31,0.60
2006,12,15,18,32,0.60
2006,12,15,18,33,0.50
2006,12,15,18,34,0.50
2006,12,15,18,35,0.50
2006,12,15,18,36,0.40
2006,12,15,18,37,0.40
2006,12,15,18,38,0.40
2006,12,15,18,39,0.40
2006,12,15,18,40,0.40
2006,12,15,18,41,0.40
2006,12,15,18,42,0.40
2006,12,15,18,43,0.40
2006,12,15,18,44,0.40
2006,12,15,18,45,0.40
2006,12,15,18,46,0.40
2006,12,15,18,47,0.40
2006,12,15,18,48,0.40
2006,12,15,18,49,0.40
2006,12,15,18,50,0.40
2006,12,15,18,51,0.40
2006,12,15,18,52,0.40
2006,12,15,18,53,0.40
2006,12,15,18,54,0.40
2006,12,15,18,55,0.40
2006,12,15,18,56,0.40
2006,12,15,18,57,0.40
2006,12,15,18,58,0.40
2006,12,15,18,59,0.40
2006,12,15,19,00,0.40
2006,12,15,19,01,0.40
2006,12,15,19,02,0.40
2006,12,15,19,03,0.40
2006,12,15,19,04,0.40
2006,12,15,19,05,0.40
2006,12,15,19,06,0.40
2006,12,15,19,07,0.30
2006,12,15,19,08,0.30
2006,12,15,19,09,0.30
2006,12,15,19,10,0.20
2006,12,15,19,11,0.20
2006,12,15,19,12,0.20
2006,12,15,19,13,0.10
2006,12,15,19,14,0.10
2006,12,15,19,15,0.10
2006,12,15,19,16,0.00
2006,12,15,19,17,0.10
2006,12,15,19,18,0.10
2006,12,15,19,19,0.10
2006,12,15,19,20,0.10
2006,12,15,19,21,0.10
2006,12,15,19,22,0.10
2006,12,15,19,23,0.20
2006,12,15,19,24,0.20
2006,12,15,19,25,0.20
2006,12,15,19,26,0.20
2006,12,15,19,27,0.10
2006,12,15,19,28,0.10
2006,12,15,19,29,0.10
2006,12,15,19,30,0.10
2006,12,15,19,31,0.10
2006,12,15,19,32,0.00
2006,12,15,19,33,-0.10
2006,12,15,19,34,-0.10
2006,12,15,19,35,-0.10
2006,12,15,19,36,-0.10
2006,12,15,19,37,-0.10
2006,12,15,19,38,-0.10
2006,12,15,19,39,-0.10
2006,12,15,19,40,-0.10
2006,12,15,19,41,0.00
2006,12,15,19,42,-0.10
2006,12,15,19,43,-0.10
2006,12,15,19,44,-0.10
2006,12,15,19,45,-0.10
2006,12,15,19,46,-0.10
2006,12,15,19,47,-0.10
2006,12,15,19,48,-0.10
2006,12,15,19,49,-0.10
2006,12,15,19,50,-0.10
2006,12,15,19,51,-0.10
2006,12,15,19,52,-0.10
2006,12,15,19,53,-0.10
2006,12,15,19,54,-0.10
2006,12,15,19,55,-0.10
2006,12,15,19,56,-0.10
2006,12,15,19,57,-0.10
2006,12,15,19,58,-0.10
2006,12,15,19,59,-0.10
2006,12,15,20,00,-0.10
2006,12,15,20,01,-0.10
2006,12,15,20,02,-0.10
2006,12,15,20,03,-0.10
2006,12,15,20,04,-0.10
2006,12,15,20,05,-0.10
2006,12,15,20,06,-0.10
2006,12,15,20,07,-0.10
2006,12,15,20,08,-0.10
2006,12,15,20,09,-0.10
2006,12,15,20,10,-0.10
2006,12,15,20,11,-0.10
2006,12,15,20,12,-0.10
2006,12,15,20,13,0.00
2006,12,15,20,14,0.10
2006,12,15,20,15,0.10
2006,12,15,20,16,0.10
2006,12,15,20,17,0.20
2006,12,15,20,18,0.20
2006,12,15,20,19,0.20
2006,12,15,20,20,0.20
2006,12,15,20,21,0.20
2006,12,15,20,22,0.20
2006,12,15,20,23,0.20
2006,12,15,20,24,0.20
2006,12,15,20,25,0.20
2006,12,15,20,26,0.20
2006,12,15,20,27,0.20
2006,12,15,20,28,0.20
2006,12,15,20,29,0.20
2006,12,15,20,30,0.20
2006,12,15,20,31,0.20
2006,12,15,20,32,0.20
2006,12,15,20,33,0.20
2006,12,15,20,34,0.20
2006,12,15,20,35,0.20
2006,12,15,20,36,0.20
2006,12,15,20,37,0.20
2006,12,15,20,38,0.20
2006,12,15,20,39,0.30
2006,12,15,20,40,0.30
2006,12,15,20,41,0.30
2006,12,15,20,42,0.30
2006,12,15,20,43,0.40
2006,12,15,20,44,0.40
2006,12,15,20,45,0.40
2006,12,15,20,46,0.40
2006,12,15,20,47,0.40
2006,12,15,20,48,0.40
2006,12,15,20,49,0.40
2006,12,15,20,50,0.40
2006,12,15,20,51,0.40
2006,12,15,20,52,0.40
2006,12,15,20,53,0.40
2006,12,15,20,54,0.50
2006,12,15,20,55,0.50
2006,12,15,20,56,0.50
2006,12,15,20,57,0.50
2006,12,15,20,58,0.50
2006,12,15,20,59,0.50
2006,12,15,21,00,0.60
2006,12,15,21,01,0.60
2006,12,15,21,02,0.60
2006,12,15,21,03,0.60
2006,12,15,21,04,0.60
2006,12,15,21,05,0.60
2006,12,15,21,06,0.60
2006,12,15,21,07,0.60
2006,12,15,21,08,0.60
2006,12,15,21,09,0.60
2006,12,15,21,10,0.60
2006,12,15,21,11,0.60
2006,12,15,21,12,0.50
2006,12,15,21,13,0.50
2006,12,15,21,14,0.50
2006,12,15,21,15,0.50
2006,12,15,21,16,0.50
2006,12,15,21,17,0.40
2006,12,15,21,18,0.40
2006,12,15,21,19,0.40
2006,12,15,21,20,0.40
2006,12,15,21,21,0.40
2006,12,15,21,22,0.40
2006,12,15,21,23,0.40
2006,12,15,21,24,0.40
2006,12,15,21,25,0.40
2006,12,15,21,26,0.40
2006,12,15,21,27,0.40
2006,12,15,21,28,0.40
2006,12,15,21,29,0.40
2006,12,15,21,30,0.40
2006,12,15,21,31,0.40
2006,12,15,21,32,0.40
2006,12,15,21,33,0.40
2006,12,15,21,34,0.40
2006,12,15,21,35,0.40
2006,12,15,21,36,0.40
2006,12,15,21,37,0.40
2006,12,15,21,38,0.40
2006,12,15,21,39,0.40
2006,12,15,21,40,0.40
2006,12,15,21,41,0.40
2006,12,15,21,42,0.40
2006,12,15,21,43,0.40
2006,12,15,21,44,0.40
2006,12,15,21,45,0.40
2006,12,15,21,46,0.40
2006,12,15,21,47,0.40
2006,12,15,21,48,0.40
2006,12,15,21,49,0.40
2006,12,15,21,50,0.40
2006,12,15,21,51,0.40
2006,12,15,21,52,0.40
2006,12,15,21,53,0.40
2006,12,15,21,54,0.40
2006,12,15,21,55,0.40
2006,12,15,21,56,0.50
2006,12,15,21,57,0.50
2006,12,15,21,58,0.50
2006,12,15,21,59,0.50
2006,12,15,22,00,0.60
2006,12,15,22,01,0.60
2006,12,15,22,02,0.60
2006,12,15,22,03,0.70
2006,12,15,22,04,0.70
2006,12,15,22,05,0.80
2006,12,15,22,06,0.80
2006,12,15,22,07,0.80
2006,12,15,22,08,0.80
2006,12,15,22,09,0.80
2006,12,15,22,10,0.80
2006,12,15,22,11,0.80
2006,12,15,22,12,0.80
2006,12,15,22,13,0.80
2006,12,15,22,14,0.80
2006,12,15,22,15,0.80
2006,12,15,22,16,0.80
2006,12,15,22,17,0.80
2006,12,15,22,18,0.80
2006,12,15,22,19,0.80
2006,12,15,22,20,0.80
2006,12,15,22,21,0.80
2006,12,15,22,22,0.80
2006,12,15,22,23,0.80
2006,12,15,22,24,0.80
2006,12,15,22,25,0.80
2006,12,15,22,26,0.80
2006,12,15,22,27,0.90
2006,12,15,22,28,0.90
2006,12,15,22,29,0.90
2006,12,15,22,30,0.90
2006,12,15,22,31,0.90
2006,12,15,22,32,0.90
2006,12,15,22,33,0.90
2006,12,15,22,34,1.00
2006,12,15,22,35,1.00
2006,12,15,22,36,1.00
2006,12,15,22,37,1.00
2006,12,15,22,38,1.10
2006,12,15,22,39,1.10
2006,12,15,22,40,1.10
2006,12,15,22,41,1.20
2006,12,15,22,42,1.20
2006,12,15,22,43,1.20
2006,12,15,22,44,1.20
2006,12,15,22,45,1.30
2006,12,15,22,46,1.30
2006,12,15,22,47,1.30
2006,12,15,22,48,1.30
2006,12,15,22,49,1.30
2006,12,15,22,50,1.30
2006,12,15,22,51,1.30
2006,12,15,22,52,1.40
2006,12,15,22,53,1.40
2006,12,15,22,54,1.40
2006,12,15,22,55,1.40
2006,12,15,22,56,1.50
2006,12,15,22,57,1.50
2006,12,15,22,58,1.50
2006,12,15,22,59,1.50
2006,12,15,23,00,1.50
2006,12,15,23,01,1.50
2006,12,15,23,02,1.50
2006,12,15,23,03,1.50
2006,12,15,23,04,1.50
2006,12,15,23,05,1.50
2006,12,15,23,06,1.50
2006,12,15,23,07,1.40
2006,12,15,23,08,1.40
2006,12,15,23,09,1.40
2006,12,15,23,10,1.30
2006,12,15,23,11,1.30
2006,12,15,23,12,1.30
2006,12,15,23,13,1.30
2006,12,15,23,14,1.20
2006,12,15,23,15,1.20
2006,12,15,23,16,1.10
2006,12,15,23,17,1.10
2006,12,15,23,18,1.00
2006,12,15,23,19,1.00
2006,12,15,23,20,0.90
2006,12,15,23,21,0.90
2006,12,15,23,22,0.90
2006,12,15,23,23,0.90
2006,12,15,23,24,0.90
2006,12,15,23,25,0.90
2006,12,15,23,26,0.90
2006,12,15,23,27,0.90
2006,12,15,23,28,0.90
2006,12,15,23,29,0.90
2006,12,15,23,30,0.90
2006,12,15,23,31,0.90
2006,12,15,23,32,0.90
2006,12,15,23,33,1.00
2006,12,15,23,34,1.00
2006,12,15,23,35,1.00
2006,12,15,23,36,1.00
2006,12,15,23,37,1.00
2006,12,15,23,38,1.00
2006,12,15,23,39,1.00
2006,12,15,23,40,1.00
2006,12,15,23,41,1.10
2006,12,15,23,42,1.10
2006,12,15,23,43,1.00
2006,12,15,23,44,1.00
2006,12,15,23,45,1.00
2006,12,15,23,46,1.00
2006,12,15,23,47,1.00
2006,12,15,23,48,1.00
2006,12,15,23,49,1.00
2006,12,15,23,50,1.00
2006,12,15,23,51,1.00
2006,12,15,23,52,1.00
2006,12,15,23,53,0.90
2006,12,15,23,54,0.90
2006,12,15,23,55,0.90
2006,12,15,23,56,0.90
2006,12,15,23,57,0.90
2006,12,15,23,58,0.90
2006,12,15,23,59,0.90
